[[{"header":{"parameterUnit":"m.s-1","parameterCategory":2,"la1":30.2991,"la2":30.254,"lo1":-89.0895,"lo2":-89.0444,"dy":0.0017,"dx":0.0017,"nx":28,"ny":28,"refTime":"2024-07-13T21:00:00:Z","depth":"0","parameterNumber":2,"parameterNumberName":"U-component_of_CURRENTS"},"data":[0,0,0,0,0,0,0,0,0,0,0,0,0,0,0,0,0,0,0,0,0,0,0,0,0,0,0,0,0,0,0,0,0,0,0,0,0,0,0,0,0,0,0,0,0,0,0,0,0,0,0,0,0,0,0,0,0,0,0.2162,0.2162,0,0.2214,0.2214,0.2215,0.2224,0.2223,0.2223,0.2222,0.2293,0.2295,0.2298,0,0,0,0,0,0,0,0,0,0,0,0,0,0.2131,0.2132,0.2162,0.2162,0.2163,0.2214,0.2214,0.2215,0.2224,0.2223,0.2223,0.2222,0.2293,0.2295,0.2298,0,0,0,0,0,0,0,0,0,0,0,0,0,0.2159,0.2132,0.2161,0.2174,0.2176,0.2214,0.2214,0.2215,0.2224,0.2223,0.2223,0.2222,0.2292,0.2295,0.2298,0.2331,0,0,0.2309,0.231,0,0,0,0,0,0,0,0,0.2158,0.216,0.2171,0.2173,0.2175,0.2212,0.223,0.2255,0.2224,0.2205,0.2222,0.2222,0.2269,0.2274,0.2284,0.2334,0.2337,0.2309,0.2311,0.2312,0.2313,0,0,0,0,0,0,0,0.2156,0.2159,0.2182,0.2172,0.2174,0.2198,0.2201,0.2235,0.2239,0.2206,0.2207,0.2214,0.227,0.2281,0.2286,0.2338,0.2309,0.2312,0.2314,0.2315,0.2463,0.2465,0,0,0,0,0,0,0.2148,0.2156,0.218,0.2183,0.2166,0.2199,0.2202,0.22,0.2238,0.2244,0.2215,0.2215,0.2275,0.2282,0.2288,0.2365,0.2312,0.2315,0.2317,0.2461,0.2463,0.2465,0,0,0,0,0,0,0.2147,0.2149,0.2178,0.2172,0.2177,0.22,0.2198,0.2202,0.2217,0.2245,0.225,0.2226,0.2275,0.2283,0.2336,0.2366,0.2317,0.232,0.2459,0.2462,0.2464,0.2495,0,0,0,0,0,0,0.2146,0.2148,0.2149,0.2171,0.2178,0.2203,0.2199,0.2203,0.2222,0.2222,0.2257,0.2262,0.2275,0.2331,0.2339,0.237,0.2323,0.2456,0.246,0.2463,0.2492,0.2499,0.2504,0,0,0,0,0,0.2144,0.2148,0.2148,0.2151,0.2175,0.2203,0.2209,0.2223,0.2223,0.2233,0.2266,0.2261,0.2359,0.2335,0.2345,0.2377,0.2455,0.2459,0.2463,0.2489,0.2497,0.2504,0,0,0,0,0,0,0.2141,0.215,0.215,0.2157,0.2179,0.2205,0.2217,0.2228,0.2261,0.2263,0.2287,0.2296,0.2361,0.2365,0.2338,0.2432,0.2406,0.2412,0.2422,0.2431,0.2437,0.2451,0.2325,0,0,0,0,0,0.2139,0.2137,0.2158,0.2164,0.2173,0.2196,0.2211,0.222,0.2251,0.2264,0.2291,0.2329,0.2387,0.2403,0.2448,0.2491,0.2529,0.2519,0.2525,0.2531,0.255,0.2642,0.2659,0.2479,0.2479,0.2479,0,0,0.2139,0.2144,0.2144,0.2163,0.2178,0.2202,0.2203,0.2225,0.2255,0.2269,0.2318,0.236,0.2408,0.2468,0.2495,0.2471,0.26,0.2536,0.254,0.2558,0.2649,0.2666,0.2682,0.2482,0.2482,0.2481,0,0,0.2143,0.2144,0.2146,0.2165,0.2188,0.2207,0.2215,0.2245,0.2268,0.2319,0.2353,0.2416,0.247,0.2524,0.2557,0.2627,0.2644,0.2631,0.2661,0.275,0.2765,0.278,0.2841,0.286,0.2618,0.2618,0.2618,0,0.2147,0.2148,0.2155,0.217,0.2189,0.2211,0.2231,0.2266,0.2312,0.2347,0.2336,0.2474,0.2506,0.2614,0.2637,0.2644,0.2685,0.2623,0.2759,0.2773,0.2788,0.2847,0.2868,0.262,0.262,0.262,0.262,0,0.2154,0.2161,0.2168,0.2189,0.2214,0.2234,0.2278,0.2314,0.2342,0.238,0.2484,0.2544,0.2625,0.2645,0.2663,0.2783,0.2777,0.2767,0.2736,0.2808,0.2865,0.2887,0.2623,0.2622,0.2622,0.2621,0,0,0.2151,0.2167,0.2171,0.2178,0.2224,0.2241,0.2306,0.2371,0.2417,0.248,0.2558,0.2668,0.2701,0.2744,0.2781,0.2851,0.2979,0.2845,0.2849,0.2901,0.3164,0.3132,0.3152,0.299,0.2994,0.2997,0.3161,0,0.2157,0.2166,0.2188,0.2218,0.2227,0.2277,0.2333,0.2398,0.2458,0.2538,0.2634,0.2716,0.2739,0.2776,0.2865,0.2961,0.3039,0.2935,0.3093,0.3097,0.3057,0.3178,0.3065,0.32,0.3182,0.3185,0.3188,0,0.2158,0.2163,0.2177,0.2217,0.2229,0.2258,0.2344,0.2398,0.2524,0.2575,0.2688,0.2755,0.2904,0.2887,0.3112,0.3044,0.3117,0.3175,0.3182,0.3161,0.3107,0.3129,0.3239,0.3053,0.3221,0.3218,0.3216,0,0.2127,0.2161,0.2163,0.2176,0.2229,0.2258,0.2299,0.2405,0.2458,0.2598,0.2652,0.2831,0.2921,0.3064,0.3203,0.3166,0.3427,0.3383,0.3427,0.3423,0.3366,0.3351,0.3314,0.3542,0.3542,0.3541,0.3541,0,0.2117,0.2123,0.2142,0.2141,0.2163,0.2219,0.227,0.2342,0.2454,0.2529,0.2663,0.2762,0.2971,0.3135,0.3245,0.3424,0.3473,0.3476,0.3486,0.337,0.3355,0.3218,0.314,0.3547,0.3546,0.3545,0.3544,0,0.2077,0.2091,0.209,0.2127,0.2138,0.2151,0.2221,0.2268,0.2378,0.2485,0.2531,0.2746,0.2965,0.3158,0.3399,0.347,0.3524,0.3667,0.3507,0.3496,0.3332,0.3261,0.3226,0.3158,0.3748,0.3749,0.3749,0,0.2051,0.204,0.2052,0.2048,0.2059,0.2086,0.2113,0.2215,0.2272,0.2473,0.2528,0.2761,0.2921,0.3268,0.3466,0.3682,0.3535,0.3657,0.357,0.3343,0.3273,0.3133,0.3067,0.3503,0.3501,0.35,0.3499,0,0.1997,0.1996,0.1988,0.1982,0.199,0.2008,0.2056,0.2087,0.2231,0.2333,0.2495,0.2631,0.2977,0.316,0.3442,0.3571,0.3439,0.3634,0.3458,0.3144,0.2936,0.2866,0.3348,0.3487,0.3488,0.3489,0.349,0.349,0.1946,0.1927,0.1917,0.1919,0.192,0.1934,0.1944,0.2013,0.2096,0.2244,0.2409,0.2583,0.2833,0.3228,0.3336,0.3371,0.338,0.327,0.3227,0.3122,0.2978,0.3423,0.3529,0.3531,0.3532,0.3533,0.3534,0,0.1899,0.1883,0.1865,0.1858,0.1846,0.1876,0.1914,0.1931,0.2004,0.2143,0.2282,0.2494,0.2665,0.2862,0.3009,0.294,0.2879,0.2848,0.26,0.258,0.3031,0.2935,0.2844,0.2844,0.2844,0.2845,0.2845,0.2845,0.187,0.1843,0.1844,0.1802,0.1795,0.1782,0.1796,0.1826,0.19,0.1992,0.2083,0.2214,0.2382,0.2467,0.245,0.2464,0.2267,0.2202,0.2186,0.2435,0.2468,0.25,0.2386,0.2183,0.2182,0.1645,0.1641,0.1637]},{"header":{"parameterUnit":"m.s-1","parameterCategory":2,"la1":30.2991,"la2":30.254,"lo1":-89.0895,"lo2":-89.0444,"dy":0.0017,"dx":0.0017,"nx":28,"ny":28,"refTime":"2024-07-13T21:00:00:Z","depth":"0","parameterNumber":3,"parameterNumberName":"V-component_of_CURRENTS"},"data":[0,0,0,0,0,0,0,0,0,0,0,0,0,0,0,0,0,0,0,0,0,0,0,0,0,0,0,0,0,0,0,0,0,0,0,0,0,0,0,0,0,0,0,0,0,0,0,0,0,0,0,0,0,0,0,0,0,0,0.1058,0.1058,0,0.1035,0.1034,0.1034,0.1014,0.1014,0.1014,0.1014,0.09,0.0897,0.0894,0,0,0,0,0,0,0,0,0,0,0,0,0,0.1038,0.1038,0.1058,0.1058,0.1058,0.1035,0.1034,0.1033,0.1014,0.1014,0.1014,0.1014,0.0901,0.0897,0.0893,0,0,0,0,0,0,0,0,0,0,0,0,0,0.103,0.1038,0.1058,0.1049,0.1048,0.1035,0.1034,0.1033,0.1014,0.1014,0.1014,0.1014,0.0902,0.0898,0.0893,0.0859,0,0,0.0878,0.0876,0,0,0,0,0,0,0,0,0.103,0.103,0.105,0.1049,0.1048,0.1031,0.0985,0.0972,0.1013,0.1022,0.1014,0.1014,0.0938,0.093,0.0921,0.0853,0.0848,0.0878,0.0875,0.0873,0.0872,0,0,0,0,0,0,0,0.1031,0.1031,0.1045,0.105,0.1049,0.103,0.1029,0.0983,0.0974,0.1021,0.1021,0.1025,0.0936,0.0925,0.0918,0.0847,0.0878,0.0874,0.0871,0.0869,0.0744,0.0743,0,0,0,0,0,0,0.1045,0.1032,0.1045,0.1044,0.1044,0.103,0.1029,0.1033,0.0976,0.097,0.1025,0.1024,0.0933,0.0923,0.0913,0.0888,0.0873,0.0869,0.0866,0.0744,0.0744,0.0743,0,0,0,0,0,0,0.1044,0.1046,0.1046,0.1041,0.104,0.1031,0.1035,0.1032,0.1027,0.0981,0.0972,0.1024,0.0933,0.092,0.0876,0.0883,0.0866,0.0862,0.0745,0.0744,0.0743,0.0826,0,0,0,0,0,0,0.1044,0.1046,0.1049,0.1042,0.1041,0.1047,0.1035,0.1032,0.1031,0.103,0.0976,0.0966,0.0932,0.0884,0.0872,0.0876,0.0858,0.0745,0.0744,0.0743,0.0824,0.0828,0.0832,0,0,0,0,0,0.1043,0.1047,0.1049,0.1051,0.1047,0.1048,0.1045,0.1036,0.1031,0.1031,0.0993,0.0968,0.087,0.088,0.0865,0.0869,0.0746,0.0745,0.0744,0.0822,0.0827,0.0831,0,0,0,0,0,0,0.1034,0.1046,0.1048,0.1054,0.1057,0.1046,0.1045,0.104,0.1011,0.1005,0.096,0.0947,0.0913,0.0872,0.0884,0.0827,0.0804,0.08,0.0868,0.0872,0.0876,0.09,0.0854,0,0,0,0,0,0.1037,0.1044,0.1052,0.1055,0.1061,0.1054,0.1052,0.1048,0.1026,0.1015,0.0979,0.0933,0.0896,0.0871,0.083,0.0794,0.0767,0.0785,0.0789,0.0793,0.08,0.0765,0.0767,0.074,0.074,0.074,0,0,0.1032,0.1041,0.1043,0.1054,0.1053,0.106,0.1052,0.1053,0.1053,0.1003,0.0981,0.0947,0.089,0.0858,0.0839,0.0825,0.0786,0.0791,0.0796,0.0801,0.0764,0.0767,0.077,0.0739,0.0739,0.0739,0,0,0.1029,0.1038,0.1046,0.1055,0.1065,0.1063,0.1068,0.1063,0.1056,0.1033,0.1001,0.0975,0.0907,0.0882,0.0856,0.0852,0.0812,0.0831,0.0868,0.0834,0.0837,0.0839,0.0817,0.0817,0.083,0.0831,0.0831,0,0.102,0.104,0.1046,0.1061,0.1073,0.1068,0.1082,0.1072,0.105,0.1051,0.1033,0.0968,0.0922,0.0898,0.0898,0.0865,0.0839,0.0861,0.0843,0.0844,0.0844,0.0822,0.082,0.0834,0.0834,0.0834,0.0833,0,0.1029,0.1048,0.1055,0.1075,0.1084,0.1095,0.1097,0.1096,0.1088,0.1083,0.1065,0.1012,0.0981,0.0958,0.0924,0.0909,0.0888,0.0859,0.084,0.0853,0.0827,0.0824,0.084,0.0838,0.0837,0.0836,0,0,0.0999,0.1052,0.1054,0.108,0.1099,0.1108,0.1114,0.1127,0.1145,0.1115,0.1132,0.1071,0.1062,0.1031,0.0992,0.0957,0.0942,0.0913,0.0909,0.091,0.0873,0.0864,0.0859,0.0908,0.0908,0.0908,0.0858,0,0.1005,0.1045,0.1067,0.1101,0.1127,0.114,0.1153,0.1162,0.1164,0.1176,0.114,0.1133,0.1083,0.1078,0.1039,0.0974,0.0935,0.0958,0.0844,0.0842,0.0846,0.0855,0.0867,0.0824,0.0855,0.0854,0.0854,0,0.1007,0.104,0.1079,0.1141,0.1154,0.1169,0.121,0.1224,0.124,0.1245,0.1242,0.1219,0.1189,0.1134,0.1039,0.1056,0.097,0.0908,0.0904,0.0865,0.0826,0.0811,0.0817,0.0693,0.0848,0.0849,0.0849,0,0.099,0.105,0.1086,0.1104,0.1162,0.1185,0.1214,0.1243,0.1272,0.1296,0.1323,0.1284,0.1275,0.1172,0.1066,0.1046,0.0954,0.0909,0.0816,0.0815,0.0788,0.0785,0.0676,0.082,0.082,0.082,0.082,0,0.0992,0.1022,0.1085,0.1105,0.1155,0.1196,0.1247,0.1275,0.1326,0.1371,0.1361,0.1388,0.128,0.1223,0.1099,0.097,0.098,0.0831,0.0802,0.0817,0.0817,0.0676,0.0623,0.0818,0.0819,0.0819,0.0819,0,0.0964,0.1006,0.1052,0.1122,0.1148,0.118,0.1269,0.1313,0.1365,0.1425,0.1439,0.1462,0.141,0.1297,0.1147,0.1023,0.0838,0.083,0.0868,0.0844,0.0637,0.059,0.049,0.0474,0.0722,0.0722,0.0721,0,0.0951,0.0973,0.105,0.1082,0.1116,0.1179,0.1231,0.1311,0.1368,0.1469,0.1502,0.1502,0.1511,0.133,0.1131,0.0939,0.083,0.0791,0.0746,0.0635,0.056,0.0544,0.0538,0.0743,0.0743,0.0742,0.0742,0,0.0923,0.0949,0.0988,0.1059,0.1117,0.1192,0.1278,0.1329,0.1432,0.1509,0.1601,0.1628,0.1505,0.1355,0.1116,0.0969,0.0745,0.0779,0.0648,0.0558,0.0551,0.052,0.0774,0.0741,0.0741,0.0741,0.0741,0.0741,0.0889,0.0911,0.0968,0.1035,0.1111,0.1204,0.1262,0.1365,0.1473,0.1607,0.1652,0.1723,0.1526,0.1231,0.1045,0.0692,0.0712,0.0553,0.0504,0.0497,0.0485,0.0746,0.0688,0.0688,0.0688,0.0688,0.0688,0,0.0845,0.0889,0.0949,0.1037,0.1116,0.1172,0.1297,0.1367,0.1491,0.1629,0.1731,0.1682,0.1423,0.1143,0.0678,0.0437,0.0399,0.0312,0.0277,0.0283,0.0487,0.0489,0.0408,0.0408,0.0408,0.0408,0.0408,0.0408,0.0824,0.0865,0.0913,0.1023,0.1095,0.1197,0.1268,0.1387,0.1499,0.1643,0.1703,0.1756,0.1518,0.076,0.0249,0.0156,0.0044,0.0024,-0.0033,0.0067,0.0085,0.0102,0.0089,-0.0075,-0.0076,-0.0191,-0.0193,-0.0194]}],[{"header":{"parameterUnit":"m.s-1","parameterCategory":2,"la1":30.2991,"la2":30.254,"lo1":-89.0895,"lo2":-89.0444,"dy":0.0017,"dx":0.0017,"nx":28,"ny":28,"refTime":"2024-07-13T21:00:00:Z","depth":"2","parameterNumber":2,"parameterNumberName":"U-component_of_CURRENTS"},"data":[0,0,0,0,0,0,0,0,0,0,0,0,0,0,0,0,0,0,0,0,0,0,0,0,0,0,0,0,0,0,0,0,0,0,0,0,0,0,0,0,0,0,0,0,0,0,0,0,0,0,0,0,0,0,0,0,0,0,0.1261,0.1261,0,0.1305,0.1305,0.1306,0.1377,0.1379,0.138,0.1381,0.1433,0.1433,0.1433,0,0,0,0,0,0,0,0,0,0,0,0,0,0.1222,0.1222,0.1261,0.1261,0.1262,0.1304,0.1305,0.1306,0.1377,0.1379,0.138,0.1382,0.1433,0.1433,0.1433,0,0,0,0,0,0,0,0,0,0,0,0,0,0.125,0.1222,0.1261,0.1302,0.1306,0.1304,0.1305,0.1306,0.1377,0.1379,0.1381,0.1382,0.1433,0.1433,0.1433,0.1396,0,0,0.1434,0.1434,0,0,0,0,0,0,0,0,0.1248,0.1251,0.1296,0.1299,0.1304,0.1337,0.131,0.1336,0.1376,0.135,0.1381,0.1383,0.14,0.1403,0.1407,0.1399,0.1401,0.1434,0.1434,0.1434,0.1434,0,0,0,0,0,0,0,0.1246,0.125,0.1279,0.1296,0.1301,0.1313,0.1319,0.1316,0.1364,0.1353,0.1358,0.1362,0.1403,0.1407,0.1409,0.1402,0.1434,0.1434,0.1434,0.1435,0.1476,0.1477,0,0,0,0,0,0,0.1239,0.1248,0.1277,0.128,0.128,0.1312,0.1319,0.1325,0.1364,0.1372,0.136,0.1365,0.1405,0.1409,0.1411,0.1486,0.1434,0.1435,0.1435,0.1475,0.1477,0.1478,0,0,0,0,0,0,0.1237,0.1241,0.1275,0.1264,0.127,0.1311,0.1316,0.1325,0.136,0.137,0.1378,0.139,0.1407,0.1411,0.1443,0.1484,0.1435,0.1435,0.1474,0.1476,0.1477,0.156,0,0,0,0,0,0,0.1236,0.124,0.1247,0.1264,0.127,0.1293,0.1315,0.1324,0.1357,0.1364,0.1397,0.1402,0.1409,0.1443,0.1444,0.1483,0.1435,0.1473,0.1475,0.1477,0.1556,0.1564,0.1571,0,0,0,0,0,0.1235,0.1233,0.1247,0.1251,0.1277,0.1293,0.1298,0.1333,0.1356,0.1372,0.1404,0.1403,0.1455,0.1444,0.1444,0.1485,0.1472,0.1474,0.1476,0.1553,0.1562,0.1571,0,0,0,0,0,0,0.1218,0.124,0.1257,0.1263,0.1286,0.1306,0.1318,0.1343,0.1378,0.1396,0.141,0.1417,0.1461,0.1452,0.1439,0.15,0.1464,0.1467,0.1522,0.1531,0.1538,0.1537,0.1435,0,0,0,0,0,0.1216,0.1225,0.1248,0.1256,0.1267,0.1296,0.131,0.1339,0.1367,0.1387,0.141,0.1436,0.1461,0.1482,0.1491,0.1519,0.1504,0.1545,0.1553,0.1559,0.1558,0.1566,0.1574,0.1485,0.1485,0.1484,0,0,0.1209,0.1224,0.1229,0.1254,0.1273,0.1294,0.1311,0.1341,0.1375,0.1383,0.1436,0.1457,0.1471,0.1515,0.1533,0.1521,0.1578,0.1562,0.1568,0.1562,0.1569,0.1578,0.1586,0.1486,0.1486,0.1485,0,0,0.1202,0.1218,0.1227,0.1247,0.1283,0.1303,0.1317,0.1355,0.1392,0.1442,0.146,0.1504,0.1541,0.1563,0.1579,0.1624,0.1611,0.1635,0.1683,0.1693,0.17,0.1706,0.1707,0.1713,0.1647,0.1647,0.1647,0,0.1199,0.1213,0.1232,0.1251,0.1269,0.131,0.1332,0.1367,0.1418,0.1448,0.1474,0.1542,0.1565,0.161,0.165,0.1643,0.1643,0.1654,0.1703,0.1709,0.1714,0.1713,0.1719,0.1652,0.1651,0.1651,0.165,0,0.1197,0.122,0.1226,0.1265,0.1287,0.1312,0.1359,0.1402,0.1458,0.1497,0.1565,0.1601,0.1652,0.1669,0.1689,0.1739,0.1726,0.1707,0.1683,0.1729,0.1724,0.1729,0.1658,0.1656,0.1655,0.1654,0,0,0.117,0.1217,0.1223,0.1245,0.1301,0.1316,0.1377,0.1434,0.1477,0.155,0.1604,0.1682,0.1719,0.1737,0.1759,0.1779,0.1839,0.178,0.1779,0.1786,0.1863,0.1795,0.1792,0.1839,0.184,0.1841,0.1849,0,0.117,0.1199,0.1227,0.1266,0.1286,0.1342,0.139,0.1453,0.1517,0.1578,0.1641,0.1701,0.174,0.1784,0.1818,0.1828,0.1853,0.1838,0.1813,0.1812,0.175,0.1795,0.1568,0.1551,0.1853,0.1853,0.1854,0,0.1162,0.1186,0.1222,0.1274,0.1288,0.1328,0.1406,0.1456,0.1549,0.1607,0.1687,0.1729,0.1807,0.1818,0.1877,0.1873,0.1889,0.1883,0.1882,0.1789,0.1751,0.1552,0.1547,0.186,0.1859,0.1859,0.1859,0,0.1135,0.1178,0.1209,0.1228,0.1298,0.1341,0.139,0.1477,0.1524,0.1632,0.1678,0.1762,0.182,0.1852,0.191,0.19,0.1941,0.1912,0.1852,0.1847,0.163,0.1604,0.1935,0.1935,0.1935,0.1935,0.1935,0,0.1119,0.1144,0.1204,0.123,0.1274,0.1332,0.1399,0.1466,0.155,0.1602,0.1704,0.1748,0.1836,0.1882,0.1911,0.1912,0.1955,0.1864,0.1848,0.1653,0.163,0.1872,0.1865,0.1935,0.1935,0.1935,0.1935,0,0.1085,0.1129,0.1168,0.1244,0.1273,0.1311,0.1405,0.144,0.154,0.1607,0.1648,0.1755,0.1824,0.1883,0.1926,0.1904,0.1905,0.1891,0.1661,0.1617,0.1797,0.1794,0.1798,0.1796,0.1794,0.1793,0.1791,0,0.1065,0.1085,0.1171,0.1198,0.1242,0.1306,0.1349,0.1445,0.1477,0.16,0.1616,0.1716,0.1757,0.1802,0.1731,0.1722,0.1881,0.1571,0.15,0.1801,0.1785,0.1785,0.1784,0.1247,0.1241,0.1237,0.1233,0,0.1028,0.1073,0.1118,0.1175,0.1226,0.1258,0.1326,0.134,0.1445,0.1493,0.1553,0.1589,0.1585,0.1482,0.1487,0.1446,0.1551,0.1475,0.1844,0.1325,0.1284,0.1267,0.1284,0.1191,0.1196,0.1199,0.1201,0.1203,0.1009,0.1038,0.111,0.1175,0.1205,0.1221,0.1238,0.1267,0.1305,0.135,0.1409,0.1409,0.1304,0.1173,0.1168,0.1171,0.1217,0.1206,0.1219,0.1237,0.118,0.1139,0.1008,0.1011,0.1013,0.1016,0.1018,0,0.1019,0.108,0.1098,0.1165,0.1163,0.1224,0.123,0.12,0.1208,0.1229,0.1247,0.1,0.0919,0.0964,0.0826,0.0779,0.0747,0.0854,0.0816,0.0849,0.0881,0.081,0.0538,0.0539,0.0539,0.054,0,0,0.1027,0.1075,0.1107,0.1131,0.1181,0.1179,0.1191,0.1111,0.1083,0.0969,0.0945,0.0894,0.087,0.0697,0.0614,0.0632,0.0775,0.0604,0.0949,0.0934,0.097,0.0996,0.0911,0,0,0,0,0]},{"header":{"parameterUnit":"m.s-1","parameterCategory":2,"la1":30.2991,"la2":30.254,"lo1":-89.0895,"lo2":-89.0444,"dy":0.0017,"dx":0.0017,"nx":28,"ny":28,"refTime":"2024-07-13T21:00:00:Z","depth":"2","parameterNumber":3,"parameterNumberName":"V-component_of_CURRENTS"},"data":[0,0,0,0,0,0,0,0,0,0,0,0,0,0,0,0,0,0,0,0,0,0,0,0,0,0,0,0,0,0,0,0,0,0,0,0,0,0,0,0,0,0,0,0,0,0,0,0,0,0,0,0,0,0,0,0,0,0,-0.0141,-0.0142,0,-0.0215,-0.0216,-0.0217,-0.0215,-0.0214,-0.0213,-0.0212,-0.034,-0.0344,-0.0349,0,0,0,0,0,0,0,0,0,0,0,0,0,-0.0067,-0.0068,-0.0141,-0.0142,-0.0143,-0.0215,-0.0216,-0.0217,-0.0215,-0.0214,-0.0213,-0.0212,-0.0338,-0.0344,-0.0349,0,0,0,0,0,0,0,0,0,0,0,0,0,-0.0116,-0.0068,-0.0141,-0.015,-0.0152,-0.0215,-0.0216,-0.0217,-0.0216,-0.0214,-0.0212,-0.0211,-0.0337,-0.0343,-0.035,-0.0422,0,0,-0.037,-0.0373,0,0,0,0,0,0,0,0,-0.0114,-0.0119,-0.0148,-0.015,-0.0151,-0.0204,-0.0237,-0.0288,-0.0216,-0.0192,-0.0212,-0.021,-0.03,-0.031,-0.0327,-0.0428,-0.0434,-0.037,-0.0374,-0.0377,-0.0379,0,0,0,0,0,0,0,-0.011,-0.0116,-0.0171,-0.0149,-0.0151,-0.0174,-0.0179,-0.0247,-0.0256,-0.0194,-0.0194,-0.0202,-0.0301,-0.0321,-0.033,-0.0436,-0.037,-0.0376,-0.038,-0.0383,-0.0552,-0.0552,0,0,0,0,0,0,-0.0098,-0.0113,-0.0169,-0.0173,-0.0127,-0.0176,-0.0182,-0.0189,-0.0254,-0.0261,-0.0203,-0.0201,-0.031,-0.0323,-0.0335,-0.0359,-0.0377,-0.0383,-0.0387,-0.0551,-0.0552,-0.0552,0,0,0,0,0,0,-0.0096,-0.0102,-0.0166,-0.0144,-0.0154,-0.0179,-0.0187,-0.0191,-0.0177,-0.026,-0.0268,-0.018,-0.031,-0.0326,-0.0369,-0.0366,-0.0386,-0.0392,-0.0551,-0.0551,-0.0552,-0.045,0,0,0,0,0,0,-0.0094,-0.0101,-0.0096,-0.0143,-0.0154,-0.018,-0.0189,-0.0194,-0.0186,-0.0183,-0.0244,-0.0256,-0.031,-0.0358,-0.0375,-0.0376,-0.0398,-0.055,-0.0551,-0.0552,-0.0453,-0.0447,-0.0443,0,0,0,0,0,-0.0091,-0.0087,-0.0095,-0.0102,-0.0148,-0.018,-0.0187,-0.0201,-0.0186,-0.018,-0.0218,-0.0252,-0.0377,-0.0364,-0.0384,-0.0386,-0.0549,-0.0551,-0.0552,-0.0455,-0.0448,-0.0443,0,0,0,0,0,0,-0.005,-0.0088,-0.0098,-0.0105,-0.013,-0.0178,-0.0176,-0.0181,-0.0206,-0.0198,-0.026,-0.0276,-0.0318,-0.0369,-0.0353,-0.044,-0.047,-0.0475,-0.039,-0.0384,-0.0379,-0.0356,-0.0403,0,0,0,0,0,-0.0042,-0.0046,-0.0088,-0.0091,-0.0099,-0.013,-0.014,-0.0149,-0.0182,-0.0188,-0.0231,-0.0286,-0.0348,-0.0372,-0.0439,-0.0483,-0.0533,-0.05,-0.0495,-0.049,-0.0486,-0.0581,-0.0583,-0.0556,-0.0556,-0.0556,0,0,-0.0028,-0.0048,-0.0051,-0.0082,-0.0102,-0.0115,-0.013,-0.0136,-0.0145,-0.0204,-0.022,-0.0272,-0.0357,-0.0407,-0.043,-0.044,-0.0516,-0.0491,-0.0486,-0.0485,-0.0582,-0.0585,-0.0587,-0.0557,-0.0557,-0.0557,0,0,-0.0005,-0.0018,-0.0014,-0.0033,-0.0056,-0.0083,-0.0072,-0.0106,-0.0114,-0.0138,-0.0193,-0.0233,-0.031,-0.0377,-0.042,-0.043,-0.0489,-0.0449,-0.04,-0.0492,-0.0494,-0.0497,-0.052,-0.0527,-0.0442,-0.0442,-0.0441,0,0.0014,0.0007,-0.0017,-0.002,-0.0032,-0.0059,-0.0059,-0.0082,-0.0123,-0.0142,-0.0124,-0.0249,-0.0299,-0.0391,-0.0376,-0.0418,-0.0457,-0.0409,-0.0483,-0.0487,-0.0492,-0.0516,-0.0524,-0.0437,-0.0437,-0.0438,-0.0438,0,0.003,0.003,0.0033,0.0017,0.0003,-0.0002,-0.0039,-0.0048,-0.0047,-0.0078,-0.0137,-0.0207,-0.0274,-0.0301,-0.0328,-0.04,-0.0409,-0.0466,-0.0489,-0.0488,-0.0513,-0.0523,-0.043,-0.0432,-0.0433,-0.0434,0,0,0.0043,0.0045,0.0044,0.0049,0.0023,0.0012,-0.0003,-0.004,-0.0049,-0.0081,-0.0108,-0.0186,-0.0206,-0.0257,-0.0318,-0.0381,-0.0413,-0.0412,-0.0419,-0.0416,-0.0565,-0.0431,-0.043,-0.0484,-0.0486,-0.0488,-0.0552,0,0.0059,0.0072,0.0061,0.0069,0.0072,0.0043,0.0032,-0.0002,-0.0029,-0.0062,-0.0137,-0.0184,-0.02,-0.0218,-0.0282,-0.0398,-0.0443,-0.0387,-0.0583,-0.0588,-0.0456,-0.0439,-0.0439,-0.0485,-0.0562,-0.0564,-0.0565,0,0.0064,0.0075,0.0095,0.01,0.0099,0.0104,0.0075,0.0063,-0.0001,-0.0015,-0.0072,-0.0135,-0.0216,-0.0232,-0.0399,-0.036,-0.0435,-0.0518,-0.0524,-0.0445,-0.0474,-0.0511,-0.0501,-0.0583,-0.0581,-0.058,-0.0579,0,0.0079,0.0089,0.0112,0.0112,0.0115,0.0125,0.013,0.0085,0.0071,0.0015,0.0003,-0.0116,-0.0155,-0.0293,-0.0395,-0.0411,-0.0572,-0.0636,-0.0591,-0.0581,-0.0642,-0.0632,-0.0758,-0.0758,-0.0758,-0.0758,-0.0758,0,0.0086,0.0102,0.0131,0.0147,0.0176,0.017,0.0184,0.0172,0.0137,0.0121,0.0045,0.0008,-0.0173,-0.0278,-0.0393,-0.0477,-0.0569,-0.0563,-0.0594,-0.0597,-0.0584,-0.0733,-0.073,-0.076,-0.076,-0.0759,-0.0759,0,0.0093,0.0112,0.0143,0.0174,0.0192,0.0219,0.0244,0.024,0.0225,0.0199,0.0188,0.009,-0.0007,-0.017,-0.038,-0.0441,-0.0573,-0.0587,-0.0521,-0.0539,-0.0523,-0.0514,-0.056,-0.0556,-0.0552,-0.0549,-0.0547,0,0.0097,0.0118,0.0174,0.0205,0.023,0.027,0.0294,0.0294,0.0284,0.0253,0.0237,0.0159,0.0116,-0.0078,-0.0216,-0.0368,-0.0467,-0.0459,-0.0488,-0.048,-0.0506,-0.0502,-0.0498,-0.0535,-0.0532,-0.053,-0.0529,0,0.0107,0.0134,0.0172,0.0238,0.0283,0.0312,0.0349,0.0348,0.034,0.0343,0.0329,0.0302,0.0184,0.0038,-0.0105,-0.0207,-0.0428,-0.0416,-0.0499,-0.0539,-0.045,-0.0476,-0.0476,-0.0512,-0.0514,-0.0515,-0.0516,-0.0516,0.0118,0.0155,0.0215,0.0278,0.033,0.036,0.0381,0.0399,0.0424,0.0444,0.0411,0.0393,0.0175,0.0034,-0.0095,-0.0194,-0.022,-0.0349,-0.036,-0.0372,-0.0312,-0.0217,-0.0222,-0.0222,-0.0222,-0.0222,-0.0222,0,0.0131,0.0194,0.0248,0.0321,0.0368,0.04,0.0421,0.0435,0.0481,0.0522,0.0551,0.0338,0.0224,0.0039,-0.0079,-0.0171,-0.0221,-0.022,-0.0335,-0.035,-0.0364,-0.0309,-0.0216,-0.0216,-0.0216,-0.0216,0,0,0.0145,0.0205,0.0247,0.0343,0.0407,0.0449,0.047,0.0505,0.0526,0.0551,0.0546,0.0515,0.0238,0.0097,-0.0063,-0.0122,-0.0186,-0.0106,-0.0103,-0.0232,-0.0243,-0.0432,-0.036,0,0,0,0,0]}],[{"header":{"parameterUnit":"m.s-1","parameterCategory":2,"la1":30.2991,"la2":30.254,"lo1":-89.0895,"lo2":-89.0444,"dy":0.0017,"dx":0.0017,"nx":28,"ny":28,"refTime":"2024-07-13T21:00:00:Z","depth":"4","parameterNumber":2,"parameterNumberName":"U-component_of_CURRENTS"},"data":[0,0,0,0,0,0,0,0,0,0,0,0,0,0,0,0,0,0,0,0,0,0,0,0,0,0,0,0,0,0,0,0,0,0,0,0,0,0,0,0,0,0,0,0,0,0,0,0,0,0,0,0,0,0,0,0,0,0,-0.0269,-0.027,0,-0.0291,-0.0291,-0.0292,-0.0273,-0.0271,-0.027,-0.0269,-0.0327,-0.0329,-0.0332,0,0,0,0,0,0,0,0,0,0,0,0,0,-0.0283,-0.0283,-0.0269,-0.027,-0.027,-0.0291,-0.0291,-0.0292,-0.0273,-0.0271,-0.027,-0.0269,-0.0326,-0.0329,-0.0332,0,0,0,0,0,0,0,0,0,0,0,0,0,-0.0291,-0.0283,-0.0269,-0.0261,-0.026,-0.0291,-0.0291,-0.0292,-0.0273,-0.0271,-0.027,-0.0268,-0.0325,-0.0329,-0.0332,-0.0386,0,0,-0.0344,-0.0345,0,0,0,0,0,0,0,0,-0.029,-0.029,-0.0262,-0.0261,-0.026,-0.0275,-0.0317,-0.0324,-0.0273,-0.0271,-0.0269,-0.0268,-0.0312,-0.0317,-0.0328,-0.0389,-0.0391,-0.0344,-0.0346,-0.0348,-0.0349,0,0,0,0,0,0,0,-0.029,-0.029,-0.0281,-0.0262,-0.0261,-0.028,-0.0279,-0.0319,-0.0303,-0.0271,-0.0269,-0.0268,-0.0312,-0.0324,-0.0329,-0.0392,-0.0344,-0.0347,-0.035,-0.0351,-0.0468,-0.0469,0,0,0,0,0,0,-0.028,-0.0289,-0.028,-0.0281,-0.0269,-0.028,-0.0279,-0.0274,-0.0301,-0.0303,-0.0269,-0.0267,-0.0319,-0.0325,-0.0331,-0.0353,-0.0348,-0.0352,-0.0354,-0.0467,-0.0468,-0.0469,0,0,0,0,0,0,-0.028,-0.0278,-0.0279,-0.0284,-0.0285,-0.0281,-0.0276,-0.0275,-0.027,-0.0299,-0.0301,-0.0261,-0.0318,-0.0326,-0.036,-0.0356,-0.0353,-0.0357,-0.0466,-0.0468,-0.0469,-0.0425,0,0,0,0,0,0,-0.028,-0.0278,-0.0276,-0.0283,-0.0284,-0.0291,-0.0277,-0.0277,-0.0271,-0.0268,-0.0294,-0.0298,-0.0317,-0.0354,-0.0363,-0.0361,-0.0359,-0.0465,-0.0467,-0.0469,-0.0425,-0.0424,-0.0424,0,0,0,0,0,-0.028,-0.0285,-0.0276,-0.0275,-0.0279,-0.0291,-0.0294,-0.0289,-0.0272,-0.0276,-0.0293,-0.0297,-0.0371,-0.0358,-0.0369,-0.0368,-0.0464,-0.0467,-0.0468,-0.0425,-0.0424,-0.0424,0,0,0,0,0,0,-0.0295,-0.0283,-0.0273,-0.0274,-0.0277,-0.0286,-0.0292,-0.0284,-0.03,-0.0293,-0.0314,-0.0321,-0.035,-0.0374,-0.0359,-0.0409,-0.0417,-0.0421,-0.038,-0.038,-0.0379,-0.0361,-0.0363,0,0,0,0,0,-0.0295,-0.0291,-0.0286,-0.0288,-0.0287,-0.0286,-0.029,-0.0283,-0.0296,-0.0299,-0.0312,-0.0337,-0.0372,-0.0384,-0.042,-0.0452,-0.0456,-0.0459,-0.0458,-0.0457,-0.0451,-0.0473,-0.0473,-0.0476,-0.0476,-0.0476,0,0,-0.0305,-0.0295,-0.0295,-0.0291,-0.0292,-0.0299,-0.0285,-0.0286,-0.0291,-0.0307,-0.0318,-0.0338,-0.0383,-0.0413,-0.0427,-0.0427,-0.0454,-0.0459,-0.0458,-0.0453,-0.0475,-0.0475,-0.0474,-0.0477,-0.0477,-0.0477,0,0,-0.0318,-0.0308,-0.0305,-0.0307,-0.0299,-0.0305,-0.0299,-0.0297,-0.0294,-0.0312,-0.0324,-0.0343,-0.0387,-0.0414,-0.0437,-0.0461,-0.0454,-0.0464,-0.044,-0.0462,-0.0461,-0.046,-0.0438,-0.0436,-0.0459,-0.0459,-0.0459,0,-0.0326,-0.0318,-0.0311,-0.0309,-0.031,-0.0304,-0.0306,-0.0315,-0.0322,-0.0322,-0.0309,-0.0362,-0.0392,-0.0435,-0.0431,-0.0458,-0.0447,-0.0434,-0.0458,-0.0458,-0.0458,-0.0435,-0.0433,-0.0457,-0.0457,-0.0457,-0.0457,0,-0.0335,-0.0329,-0.0331,-0.0323,-0.0329,-0.0331,-0.0335,-0.0334,-0.0322,-0.0324,-0.0341,-0.0374,-0.0394,-0.0411,-0.0424,-0.0442,-0.0424,-0.0454,-0.045,-0.0454,-0.0431,-0.0429,-0.0454,-0.0455,-0.0455,-0.0456,0,0,-0.0347,-0.0336,-0.0334,-0.0328,-0.0331,-0.0335,-0.0347,-0.0354,-0.0349,-0.0352,-0.0348,-0.0393,-0.0374,-0.04,-0.0415,-0.0429,-0.0411,-0.0424,-0.0426,-0.0384,-0.0411,-0.0372,-0.0367,-0.0432,-0.0433,-0.0433,-0.0382,0,-0.0351,-0.0343,-0.0342,-0.0347,-0.0344,-0.0345,-0.0356,-0.0361,-0.0359,-0.0356,-0.0376,-0.0379,-0.0383,-0.0369,-0.0387,-0.0415,-0.0409,-0.0419,-0.0429,-0.0429,-0.0381,-0.0366,-0.0434,-0.0381,-0.0381,-0.0381,-0.0381,0,-0.0355,-0.0347,-0.034,-0.0339,-0.0338,-0.0335,-0.0335,-0.0343,-0.0351,-0.0342,-0.034,-0.0343,-0.0354,-0.0357,-0.0382,-0.0378,-0.0377,-0.0397,-0.0396,-0.0376,-0.039,-0.0388,-0.0379,-0.0379,-0.0379,-0.0379,-0.038,0,-0.0354,-0.0348,-0.0337,-0.0337,-0.0337,-0.0323,-0.0318,-0.0323,-0.0326,-0.031,-0.0301,-0.0316,-0.0308,-0.0329,-0.0346,-0.035,-0.0374,-0.0397,-0.036,-0.0356,-0.0423,-0.0425,-0.0406,-0.0406,-0.0406,-0.0406,-0.0406,0,-0.0354,-0.0351,-0.0323,-0.0317,-0.0299,-0.0297,-0.0282,-0.0277,-0.0275,-0.0281,-0.0271,-0.028,-0.0298,-0.0315,-0.0333,-0.0331,-0.0359,-0.034,-0.0345,-0.0403,-0.0403,-0.042,-0.0423,-0.0404,-0.0405,-0.0405,-0.0405,0,-0.0357,-0.0342,-0.0333,-0.031,-0.0294,-0.0274,-0.0252,-0.0252,-0.0235,-0.024,-0.0226,-0.024,-0.0245,-0.0267,-0.03,-0.0302,-0.0321,-0.0314,-0.0338,-0.0347,-0.0281,-0.0282,-0.0249,-0.0248,-0.0246,-0.0245,-0.0244,0,-0.0356,-0.0348,-0.0319,-0.03,-0.0278,-0.0246,-0.0235,-0.0222,-0.0228,-0.0231,-0.0243,-0.0228,-0.0238,-0.0233,-0.0271,-0.0269,-0.0281,-0.0259,-0.0293,-0.0259,-0.0267,-0.027,-0.0273,-0.0242,-0.0241,-0.0241,-0.0241,0,-0.0364,-0.035,-0.0344,-0.0297,-0.0267,-0.0252,-0.0227,-0.0212,-0.0213,-0.0226,-0.0216,-0.0201,-0.0206,-0.0215,-0.0196,-0.022,-0.0261,-0.0245,-0.0248,-0.0279,-0.025,-0.026,-0.0264,-0.0236,-0.0236,-0.0237,-0.0237,0,-0.0373,-0.0367,-0.0345,-0.03,-0.0268,-0.0229,-0.022,-0.0206,-0.0198,-0.0191,-0.0203,-0.0199,-0.0212,-0.0191,-0.0206,-0.0186,-0.0188,-0.0179,-0.0185,-0.0191,-0.02,-0.0157,-0.0104,0,0,0,0,0,-0.038,-0.0369,-0.0342,-0.0284,-0.0253,-0.0229,-0.0214,-0.0213,-0.021,-0.019,-0.018,-0.0182,-0.0157,-0.0174,-0.0142,-0.0193,-0.0196,-0.0156,-0.0192,-0.0208,-0.0214,-0.0233,0,0,0,0,0,0,-0.0383,-0.0375,-0.0351,-0.0276,-0.0227,-0.0196,-0.0177,-0.018,-0.0164,-0.0162,-0.0154,-0.0166,-0.0156,-0.0168,-0.0138,-0.014,-0.0154,-0.0163,-0.0162,-0.0205,-0.021,-0.0215,-0.0236,0,0,0,0,0]},{"header":{"parameterUnit":"m.s-1","parameterCategory":2,"la1":30.2991,"la2":30.254,"lo1":-89.0895,"lo2":-89.0444,"dy":0.0017,"dx":0.0017,"nx":28,"ny":28,"refTime":"2024-07-13T21:00:00:Z","depth":"4","parameterNumber":3,"parameterNumberName":"V-component_of_CURRENTS"},"data":[0,0,0,0,0,0,0,0,0,0,0,0,0,0,0,0,0,0,0,0,0,0,0,0,0,0,0,0,0,0,0,0,0,0,0,0,0,0,0,0,0,0,0,0,0,0,0,0,0,0,0,0,0,0,0,0,0,0,-0.039,-0.039,0,-0.0392,-0.0391,-0.0391,-0.044,-0.0441,-0.0443,-0.0444,-0.0468,-0.0467,-0.0467,0,0,0,0,0,0,0,0,0,0,0,0,0,-0.036,-0.036,-0.039,-0.039,-0.039,-0.0392,-0.0391,-0.0391,-0.044,-0.0441,-0.0443,-0.0445,-0.0468,-0.0467,-0.0466,0,0,0,0,0,0,0,0,0,0,0,0,0,-0.0366,-0.0361,-0.039,-0.0416,-0.0419,-0.0392,-0.0391,-0.0391,-0.0439,-0.0441,-0.0444,-0.0446,-0.0468,-0.0467,-0.0466,-0.0415,0,0,-0.0463,-0.0462,0,0,0,0,0,0,0,0,-0.0366,-0.0367,-0.0412,-0.0414,-0.0417,-0.042,-0.039,-0.0401,-0.0439,-0.0429,-0.0444,-0.0447,-0.0454,-0.0454,-0.0446,-0.0417,-0.0418,-0.0463,-0.0462,-0.0462,-0.0461,0,0,0,0,0,0,0,-0.0365,-0.0367,-0.0388,-0.0412,-0.0415,-0.0405,-0.0409,-0.0392,-0.0428,-0.043,-0.0434,-0.0437,-0.0455,-0.0447,-0.0447,-0.0418,-0.0463,-0.0462,-0.0461,-0.0461,-0.0441,-0.0442,0,0,0,0,0,0,-0.0371,-0.0367,-0.0388,-0.0388,-0.0399,-0.0404,-0.0408,-0.0415,-0.0427,-0.0432,-0.0435,-0.044,-0.0448,-0.0448,-0.0448,-0.0473,-0.0462,-0.0461,-0.046,-0.0441,-0.0441,-0.0442,0,0,0,0,0,0,-0.037,-0.0373,-0.0388,-0.0379,-0.0381,-0.0403,-0.041,-0.0414,-0.0444,-0.0432,-0.0437,-0.0467,-0.0449,-0.045,-0.0457,-0.0472,-0.046,-0.0459,-0.0441,-0.0441,-0.0442,-0.047,0,0,0,0,0,0,-0.0369,-0.0373,-0.0392,-0.038,-0.0382,-0.0389,-0.0408,-0.0412,-0.0441,-0.0448,-0.0459,-0.0461,-0.0451,-0.0459,-0.0456,-0.047,-0.0458,-0.0441,-0.0441,-0.0441,-0.0469,-0.0471,-0.0473,0,0,0,0,0,-0.0368,-0.0379,-0.0392,-0.0396,-0.0403,-0.039,-0.0389,-0.041,-0.0441,-0.0448,-0.0459,-0.0463,-0.0459,-0.0457,-0.0454,-0.0469,-0.0441,-0.0441,-0.0441,-0.0468,-0.0471,-0.0473,0,0,0,0,0,0,-0.0377,-0.0385,-0.0399,-0.0414,-0.0413,-0.04,-0.0413,-0.0427,-0.044,-0.0462,-0.0457,-0.0459,-0.0474,-0.0462,-0.0461,-0.0464,-0.0453,-0.0453,-0.0474,-0.0477,-0.0479,-0.048,-0.0457,0,0,0,0,0,-0.0386,-0.04,-0.0398,-0.0412,-0.0417,-0.0422,-0.0428,-0.044,-0.0444,-0.0455,-0.0463,-0.0469,-0.0462,-0.0466,-0.0459,-0.0452,-0.0434,-0.0462,-0.0464,-0.0466,-0.0464,-0.0444,-0.0444,-0.0443,-0.0443,-0.0443,0,0,-0.0392,-0.04,-0.0409,-0.0416,-0.0421,-0.0417,-0.0432,-0.0447,-0.0448,-0.0452,-0.0472,-0.0479,-0.0463,-0.0462,-0.0468,-0.0461,-0.0456,-0.0466,-0.0468,-0.0465,-0.0444,-0.0445,-0.0445,-0.0443,-0.0443,-0.0443,0,0,-0.0395,-0.0421,-0.043,-0.043,-0.0444,-0.0439,-0.0452,-0.0458,-0.0472,-0.0477,-0.0486,-0.0501,-0.0494,-0.0483,-0.0475,-0.0481,-0.047,-0.0491,-0.05,-0.0481,-0.0481,-0.048,-0.0456,-0.0453,-0.0489,-0.0489,-0.0489,0,-0.0408,-0.0417,-0.0428,-0.0432,-0.0438,-0.0453,-0.0456,-0.0454,-0.0464,-0.0471,-0.0493,-0.0498,-0.0497,-0.0482,-0.0493,-0.0486,-0.0475,-0.0493,-0.0484,-0.0483,-0.0482,-0.0457,-0.0454,-0.0491,-0.0491,-0.049,-0.049,0,-0.0403,-0.0422,-0.0427,-0.0438,-0.0441,-0.0447,-0.0445,-0.0459,-0.0486,-0.0487,-0.0504,-0.0501,-0.0506,-0.051,-0.0505,-0.0502,-0.0496,-0.0491,-0.0478,-0.0484,-0.0457,-0.0453,-0.0493,-0.0492,-0.0492,-0.0491,0,0,-0.0402,-0.0421,-0.0428,-0.0438,-0.045,-0.0448,-0.0451,-0.045,-0.0461,-0.048,-0.0491,-0.0493,-0.0518,-0.051,-0.0513,-0.0501,-0.0492,-0.0503,-0.0502,-0.0481,-0.0451,-0.0462,-0.0458,-0.0493,-0.0492,-0.0492,-0.0434,0,-0.04,-0.041,-0.0419,-0.043,-0.0435,-0.0448,-0.0443,-0.0449,-0.0463,-0.0475,-0.0481,-0.0492,-0.0506,-0.0523,-0.0516,-0.0501,-0.0484,-0.0508,-0.0447,-0.0444,-0.0455,-0.0454,-0.049,-0.0431,-0.043,-0.0429,-0.0429,0,-0.0395,-0.0403,-0.0415,-0.0431,-0.0436,-0.0441,-0.0454,-0.0453,-0.0459,-0.0474,-0.0492,-0.0503,-0.0501,-0.0513,-0.0482,-0.0502,-0.0482,-0.0464,-0.0461,-0.0458,-0.0448,-0.0423,-0.0421,-0.0422,-0.0422,-0.0423,-0.0423,0,-0.0386,-0.0404,-0.0417,-0.0422,-0.0434,-0.0446,-0.0453,-0.0461,-0.0459,-0.0478,-0.0484,-0.0493,-0.0493,-0.0478,-0.0456,-0.0474,-0.0409,-0.0422,-0.0402,-0.0402,-0.0397,-0.0398,-0.0386,-0.0386,-0.0386,-0.0387,-0.0387,0,-0.0377,-0.0393,-0.0418,-0.0424,-0.0435,-0.0449,-0.046,-0.0468,-0.0473,-0.0468,-0.049,-0.0478,-0.0487,-0.0456,-0.0444,-0.0409,-0.0394,-0.0402,-0.039,-0.041,-0.0413,-0.0393,-0.0395,-0.0384,-0.0385,-0.0385,-0.0386,0,-0.0369,-0.0388,-0.0403,-0.0425,-0.0433,-0.0444,-0.0457,-0.0458,-0.0467,-0.0459,-0.0464,-0.0458,-0.0436,-0.0421,-0.0383,-0.0383,-0.0351,-0.0333,-0.0343,-0.0332,-0.0362,-0.0366,-0.0326,-0.0326,-0.0325,-0.0325,-0.0325,0,-0.0362,-0.0371,-0.0403,-0.0411,-0.0425,-0.044,-0.0446,-0.0458,-0.0454,-0.0435,-0.0424,-0.0406,-0.0404,-0.0349,-0.0345,-0.032,-0.0317,-0.03,-0.0355,-0.0365,-0.0356,-0.036,-0.0364,-0.0325,-0.0325,-0.0325,-0.0325,0,-0.0343,-0.0367,-0.0379,-0.0393,-0.0409,-0.0423,-0.0432,-0.0415,-0.0419,-0.0424,-0.0391,-0.0384,-0.0353,-0.0346,-0.0321,-0.03,-0.0323,-0.03,-0.0301,-0.0353,-0.0364,-0.0357,-0.036,-0.0325,-0.0325,-0.0325,-0.0325,0,-0.0331,-0.0339,-0.0358,-0.0368,-0.0386,-0.0396,-0.0405,-0.0398,-0.0394,-0.0378,-0.0359,-0.0342,-0.034,-0.0331,-0.0299,-0.0298,-0.0317,-0.0326,-0.0326,-0.0327,-0.0359,-0.0375,-0.0326,0,0,0,0,0,-0.0306,-0.0315,-0.0325,-0.0346,-0.0364,-0.0378,-0.0386,-0.0392,-0.0382,-0.0363,-0.0365,-0.0342,-0.0329,-0.0313,-0.0315,-0.0306,-0.0313,-0.0309,-0.0323,-0.0324,-0.0324,-0.0365,0,0,0,0,0,0,-0.0291,-0.0305,-0.0315,-0.032,-0.0329,-0.0355,-0.0359,-0.0362,-0.0352,-0.0343,-0.0333,-0.0349,-0.033,-0.0328,-0.0315,-0.0315,-0.0326,-0.0308,-0.0308,-0.0324,-0.0324,-0.0324,-0.0366,0,0,0,0,0]}]]